Cloud_Cover
100 88 80 79 100 81 91 26 5 5 48 100 100 95 70 14 8 5 3 5 4 0 0 0 0 0 0 0 0 0 0 0 0 0 0 0 0 0 0 0 0 0 0 0 0
100 57 6 98 100 100 81 72 49 100 100 100 100 92 60 5 5 5 5 4 0 0 0 0 0 0 0 0 0 0 0 0 0 0 0 0 0 0 0 0 0 0 0 0 0
100 100 99 100 100 100 100 100 100 100 100 100 77 21 5 43 6 5 5 2 0 0 0 0 3 0 0 0 0 0 0 0 0 0 0 0 0 0 0 0 0 0 0 0 0
100 100 100 100 100 100 100 100 100 100 98 88 80 25 10 5 65 63 5 2 0 0 0 0 0 2 0 0 0 0 0 0 0 0 0 0 0 0 0 0 0 0 0 0 0
100 100 100 100 100 100 100 100 100 100 100 100 91 85 50 28 44 51 5 5 0 0 0 0 5 5 5 3 0 0 0 0 0 0 0 0 0 0 0 0 0 0 0 0 0
100 100 100 100 100 100 100 100 99 40 30 68 94 78 42 75 16 10 52 5 0 0 0 0 4 5 5 5 2 0 0 0 0 0 0 0 0 0 0 0 0 0 0 0 0
100 100 100 100 100 100 100 100 100 100 94 46 70 97 82 71 40 8 6 5 0 0 3 5 5 5 10 5 5 5 0 0 0 0 0 0 0 0 0 0 0 0 0 0 0
100 100 100 100 100 100 100 100 100 67 12 6 77 67 77 32 17 40 9 12 15 7 11 5 22 61 82 58 6 5 5 0 0 0 0 0 0 0 0 0 0 0 0 0 0
100 100 100 100 100 100 100 100 100 99 97 5 62 68 73 11 6 26 37 6 57 56 64 42 11 9 48 100 83 8 5 4 1 1 1 0 0 0 0 0 0 0 0 0 0
100 100 100 91 100 100 100 100 100 81 6 5 11 66 13 7 11 54 16 5 5 6 16 7 12 6 48 99 100 38 15 4 5 2 5 0 0 0 0 0 0 0 0 0 0
100 100 100 100 98 99 100 100 100 100 99 57 9 8 5 5 5 31 17 29 11 23 52 57 74 99 100 100 100 100 9 5 5 5 5 5 4 4 0 0 0 0 0 0 0
100 100 100 100 100 53 100 100 100 100 100 100 100 89 54 45 30 6 5 7 21 41 44 59 98 100 100 100 100 100 99 96 43 5 5 5 5 5 0 1 0 0 0 0 0
100 93 83 100 100 100 100 100 100 100 100 100 100 100 100 72 72 28 53 37 8 13 47 52 99 100 100 100 100 100 100 100 100 88 10 5 5 5 3 5 2 0 0 0 0
100 100 100 100 100 100 100 100 100 100 100 100 100 100 100 100 100 100 71 51 56 69 98 98 100 100 100 100 100 100 100 100 100 100 44 5 0 5 1 1 0 1 0 0 0
100 100 100 100 100 100 100 100 100 100 100 100 100 100 100 100 100 100 100 100 100 100 100 100 100 100 100 100 100 100 100 100 100 100 79 52 16 95 2 0 0 0 0 0 0
94 99 100 99 100 100 100 100 100 100 100 100 100 100 100 100 100 100 100 100 100 100 100 100 100 99 100 100 100 100 100 100 100 100 5 38 56 44 4 5 0 0 0 0 0
84 91 100 98 99 100 98 100 100 100 100 93 98 100 100 100 100 100 100 100 100 100 100 100 100 100 100 100 100 100 100 100 74 78 77 24 6 13 18 5 2 0 0 0 0
11 75 100 93 100 100 100 100 97 100 100 97 100 99 97 100 100 100 100 100 100 100 100 100 70 100 100 100 100 100 100 100 97 80 17 5 4 5 5 5 2 0 0 0 0
98 89 42 85 100 100 100 100 100 100 100 100 100 100 100 100 100 100 100 100 100 100 100 100 100 100 100 100 100 84 99 100 94 59 11 5 25 5 5 5 3 0 0 0 0
100 100 72 70 89 100 100 100 100 100 100 100 100 100 100 100 100 100 100 100 100 100 100 100 100 100 96 76 82 44 21 42 51 5 5 3 2 5 1 18 32 2 0 4 4
100 100 32 63 84 83 100 100 100 100 100 100 100 100 100 100 100 100 100 100 100 100 100 100 60 6 18 54 87 100 99 51 16 5 5 0 25 10 4 4 0 0 0 5 5
100 100 100 100 95 60 30 100 100 100 100 100 100 100 100 100 100 100 100 100 100 100 44 8 5 15 17 6 14 9 19 55 99 19 26 95 19 1 2 2 1 0 1 5 5
100 100 100 100 100 78 74 86 100 100 100 100 100 100 100 100 100 100 100 100 59 41 6 5 5 5 8 32 36 5 21 74 6 4 93 100 17 0 0 0 5 19 5 5 29
100 100 100 100 100 100 100 100 100 100 100 100 100 100 100 100 100 100 78 74 78 91 5 5 5 5 7 49 10 5 26 72 100 100 71 82 88 5 6 100 100 100 34 99 75
100 100 100 100 100 100 100 100 100 100 100 100 100 100 100 100 100 82 84 84 15 41 5 40 70 90 64 99 100 99 100 100 100 93 100 15 50 4 42 49 100 100 100 91 100
100 100 100 100 100 100 100 100 100 100 100 100 100 100 100 100 100 100 100 100 100 69 100 98 69 100 42 100 100 70 99 39 91 92 100 100 100 100 100 97 92 100 100 100 100
100 100 100 100 100 100 100 100 100 100 100 100 100 100 100 100 100 100 100 99 63 62 95 97 100 100 78 100 100 95 4 8 52 94 100 100 100 100 96 100 100 100 100 100 100